Regional Weather Roundup
Issued by NWS Grand Forks, ND

Home | Current Version | Previous Version | Text Only | Print | Product List | Glossary Off
Versions: 1 2 3 4 5 6 7 8 9 10 11 12 13 14 15 16 17 18 19 20 21 22 23 24 25 26 27 28 29 30 31 32 33 34 35 36 37 38 39 40 41 42 43 44 45 46 47 48 49 50

000
ASUS43 KFGF 200531
RWRFGF
PRAIRIE TO PINES  WEATHER ROUNDUP
NATIONAL WEATHER SERVICE EASTERN NORTH DAKOTA/GRAND FORKS ND
1100 PM CST THU JAN 19 2017

 **SATELLITE DATA USED TO AUGMENT SKY COVER AT AUTOMATED STATIONS**
 *****  WEATHER ACROSS EASTERN NORTH DAKOTA  *****

CITY           SKY/WX    TMP DP  RH WIND       PRES   REMARKS
GRAND FORKS    CLOUDY    35  32  88 S12       29.55S FOG
GRAND FRKS AFB CLOUDY    34  32  93 S13       29.54S WCI  25
DEVILS LAKE    LGT SNOW  25  24  96 S10       29.49S FOG     WCI  15
FARGO          CLOUDY    35  35 100 SE10      29.58S FOG
WAHPETON ARPT  CLOUDY    34  32  93 SE13      29.59S WCI  25
$$

 ***** WEATHER ACROSS CENTRAL AND WESTERN NORTH DAKOTA  *****

CITY           SKY/WX    TMP DP  RH WIND       PRES   REMARKS
BISMARCK       FAIR      13  10  88 SE6       29.48S WCI   4
MINOT          FAIR      24  20  84 SW5       29.40F WCI  18
JAMESTOWN      FOG       33  33 100 S9        29.49F VSB 3/4
MINOT AFB      FAIR      19  16  88 CALM      29.39F
GARRISON         N/A     13  11  92 SE3       29.42F
WILLISTON      FAIR      19  17  92 SW6       29.44R WCI  11
DICKINSON      FAIR      19  16  88 W7        29.39F WCI  10
HETTINGER      FAIR      17  13  84 NW6       29.42F WCI   9
$$

 *****  OTHER AIRPORT OBSERVATIONS IN OUR AREA  *****

CITY           SKY/WX    TMP DP  RH WIND       PRES   REMARKS
WALHALLA       NOT AVBL
GRAFTON AIRPOR CLOUDY    32  32 100 S17G23    29.56S WCI  21
VALLEY CITY AR LGT RAIN  32  32 100 S9        29.54S VSB 1/2 WCI  24
CANDO          NOT AVBL
CAVALIER APRT    N/A     32  30  93 S15       29.52S WCI  22
GWINNER        CLOUDY    34  34 100 SE13      29.54S WCI  25
SHEYENNE NWR     N/A     35  35  98 S12       29.95S
ROLLA            N/A    N/A N/A N/A MISG        N/A
 ***** THE ABOVE OBSERVATIONS ARE NON NWS ARE NOT QUALITY
       CONTROLLED AND MAY MIS-REPORT RAIN FOR SNOW...
$$

  *****  WEATHER ACROSS NORTHERN MINNESOTA  *****

CITY           SKY/WX    TMP DP  RH WIND       PRES   REMARKS
FLAG ISLAND    FOG       25  23  93 S3        29.56R VSB<1/4
WARROAD        FOG       30  27  86 S3        29.57R VSB 1/2
ROSEAU         CLOUDY    37  32  81 SW14      29.56R HAZE
HALLOCK        CLOUDY    34  34 100 S17       29.55R FOG     WCI  23
THF RVR FALLS  LGT RAIN  34  34 100 S15       29.58S VSB 3/4 WCI  24
BAUDETTE       CLOUDY    37  36  96 S9        29.57S FOG
WASKISH        CLOUDY    37  37 100 S9G16     29.59F FOG
CROOKSTON      CLOUDY    34  34 100 S20       29.58F FOG     WCI  22
STEPHEN NDAWN    N/A     34  34 100 S15         N/A  WCI  24
GREENBUSH NDAW   N/A     34  34 100 S20         N/A  WCI  22
$$
  *****  WEATHER ACROSS CENTRAL AND WEST MINNESOTA  *****

CITY           SKY/WX    TMP DP  RH WIND       PRES   REMARKS
FOSSTON        CLOUDY    34  34 100 S13       29.59S FOG     WCI  25
BEMIDJI        FOG       35  35  99 S8        29.60S VSB 1/2
PARK RAPIDS    FOG       34  32  92 S10       29.61F VSB 1/4
ELBOW LAKE     LGT SNOW  34  34 100 E10       29.60F VSB 3/4
WADENA         FOG       34  34 100 CALM      29.60F VSB 1/2
DETROIT LAKES  FOG       34  34 100 S10       29.60F VSB 1
MOORHEAD       CLOUDY    34  34 100 SE10      29.59S FOG
FERGUS FALLS   CLOUDY    36  36 100 SE13      29.64S FOG
MORRIS MN      FOG       34  34 100 SE7       29.60F VSB<1/4
STAPLES          N/A     34  34 100 CALM      29.62F FOG
$$
  *****  WEATHER ELSEWHERE ACROSS MINNESOTA  *****

CITY           SKY/WX    TMP DP  RH WIND       PRES   REMARKS
DULUTH         CLOUDY    35  32  88 SE7       29.68F
INTRNTL FALLS  MOCLDY    37  34  89 S6        29.61S FOG
ELY            FAIR      36  32  87 S3        29.66F
CLOQUET        CLOUDY    34  30  86 SE3       29.68S
WHEATON        CLOUDY    41  41 100 SE13      29.60F FOG
BRAINERD       MOCLDY    36  33  89 S10       29.64F FOG
HIBBING        FOG       22  22 100 CALM      29.65F VSB 1/4
ALEXANDRIA     FOG       34  34 100 S6        29.61S VSB 1
SAINT CLOUD    CLOUDY    34  33  96 E5        29.65F FOG
MINNEAPOLIS    CLOUDY    36  32  85 SE5       29.68F
$$

  *****  WEATHER ACROSS SOUTH DAKOTA  *****

CITY           SKY/WX    TMP DP  RH WIND       PRES   REMARKS
SIOUX FALLS    DRZL/FOG  37  37 100 SE12      29.59F VSB 3/4
BROOKINGS      MIX PCPN  35  35 100 SE14      29.56F FOG
WATERTOWN      FOG       35  35 100 SE14      29.55R VSB 3/4
HURON          CLOUDY    36  36 100 SE9       29.52S
SISSETON         N/A     35  35 100 S9        29.56F
ABERDEEN       CLOUDY    34  32  92 SE12      29.52S FOG
MITCHELL       CLOUDY    39  39 100 SE15      29.54S
PIERRE         FOG       22  20  92 CALM      29.45S VSB 1/4
MOBRIDGE       FOG       23  20  88 N6        29.43F VSB 1/4 WCI  16
RAPID CITY     FAIR      30  19  63 W6        29.42F WCI  24
$$

  *****  SOME WEATHER IN NEARBY STATES *****

CITY           SKY/WX    TMP DP  RH WIND       PRES   REMARKS
GLASGOW MT     FAIR      26  22  84 NE6       29.43F WCI  19
GREAT FALLS MT MOCLDY    35  28  75 SW12      29.48S
CHEYENNE WY    FAIR      33  19  56 W13       29.51F WCI  24
SCOTTSBLUFF NE FAIR      30  23  75 NW7       29.51F WCI  23
OMAHA NE       CLOUDY    40  37  89 CALM      29.62F FOG
DES MOINES IA  FOG       38  37  97 CALM      29.64F VSB 1/4
DAVENPORT IA   FOG       36  36 100 E8        29.66F VSB 3/4
CHICAGO IL     LGT RAIN  38  37  97 NE8       29.72F FOG
EAU CLAIRE WI  MIX PCPN  36  33  89 SE7       29.73F
LA CROSSE WI   RAIN      38  35  89 E5        29.73S FOG
$$

  *****  SOME NATIONAL WEATHER *****

CITY           SKY/WX    TMP DP  RH WIND       PRES   REMARKS
LA GUARDIA NY  CLOUDY    43  34  70 E8        30.02S
RALEIGH NC     MOCLDY    48  41  76 CALM      30.00S
ATLANTA GA     RAIN      62  61  96 S7        29.86F FOG
NEW ORLEANS LA FAIR      63  61  93 S6        29.84R
OKLAHOMA CITY  FAIR      41  41 100 S7        29.55S
ALBUQUERQUE NM MOCLDY    38  34  85 S5        29.79F
SALT LAKE CITY FOG       30  28  92 W3        29.70F VSB 1/2
LOS ANGELES CA LGT RAIN  55  49  80 SW17      29.90F
BOISE ID       CLOUDY    37  32  82 SE10      29.65F
SEATTLE WA     MOCLDY    45  38  76 S9        29.48F
$$

*** WEATHER ACROSS MANITOBA...SASKATCHEWAN AND ONTARIO ***
                ***ONTARIO***

CITY           SKY/WX    TMP DP  RH WIND       PRES   REMARKS
GERALDTON        N/A     34  32  93 S9        29.67F FOG
THUNDER BAY    FOG       30  30 100 NE5       29.73S VSB 1/8
SIOUX LOOKOUT  FOG       32  30  93 S7        29.59S VSB 1
TORONTO        CLOUDY    34  30  86 SE6       29.96S
BIG TROUT LK   CLEAR     23  23 100 W3        29.48R FOG
PICKLE LAKE    NOT AVBL
DRYDEN         CLOUDY    32  32 100 S10       29.58S FOG     WCI  24
KENORA         CLEAR     34  32  93 S12       29.55S FOG
$$
                *** MANITOBA***

CITY           SKY/WX    TMP DP  RH WIND       PRES   REMARKS
BRANDON        PTCLDY    18  16  93 NW7       29.42F WCI   8
DAUPHIN        CLEAR     30  27  86 W8        29.38F WCI  23
ISLAND LAKE    PTCLDY    27  27 100 SE2       29.47S FOG
PILOT MOUND      N/A     16  14  93 S12         N/A  WCI   3
THE PAS        CLOUDY    32  27  80 E8        29.38F WCI  25
THOMPSON       FOG       28  28 100 E5        29.46S VSB 3/4 WCI  23
WINNIPEG       CLOUDY    28  28 100 S16G23    29.49S FOG     WCI  17
LYNN LAKE      CLOUDY    28  28 100 SE7       29.44R FOG     WCI  21
CHURCHILL      FLURRIES  19  18  93 E9        29.57R WCI   9
GILLAM         LGT SNOW  28  27  93 NE2       29.49R
$$
                ***SASKATCHEWAN***

CITY           SKY/WX    TMP DP  RH WIND       PRES   REMARKS
ESTEVAN        CLEAR     21  18  86 SE2       29.40F
KINDERSLEY     MOCLDY    34  28  80 S12       29.27F
LLOYDMINSTER   CLOUDY    25  25 100 S3        29.20S
PRINCE ALBERT  FOG       21  19  93 E7        29.29S VSB 1   WCI  13
REGINA         MOCLDY    28  27  93 E8        29.37F WCI  20
YORKTON        CLEAR     30  27  86 VRB8      29.38R WCI  23
N. BATTLEFORD  CLEAR     30  30 100 SE7       29.25S WCI  23
LA RONGE       CLOUDY    34  30  86 NE5       29.30S
SASKATOON      MOCLDY    36  32  87 S8        29.29F
SWIFT CURRENT  CLOUDY    36  30  80 SW14      29.35F
$$
NOTE: THESE ARE AUTOMATED STATIONS WITH LIMITED QUALITY CONTROL
      "FAIR" INDICATES FEW OR NO CLOUDS BELOW 12,000 FEET WITH NO
      SIGNIFICANT WEATHER AND/OR OBSTRUCTIONS TO VISIBILITY.
      SKY/WX - SKY CONDITION AND SIGNIFICANT WEATHER.
      TMP - AIR TEMPERATURE.    DP   - DEWPOINT TEMPERATURE.
      RH  - RELATIVE HUMIDITY.  PRES - PRESSURE.
      HX  - HEAT INDEX.         WCI  - WIND CHILL INDEX.
$



USA.gov is the U.S. government's official web portal to all federal, state and local government web resources and services.